Location: De Har
(53.3413°N, 6.6858°E)
Time: 07:37:30
(UTC+00:00)

Meteor 2-11 Rocket - Pass Details

Date: 22 April 2026
Orbit: 940 x 956 km, 82.5° (Epoch: 15 May)

Event Time Altitude Azimuth Distance (km) Brightness Sun altitude
Rises 02:58:08 0° 347° (NNW) 3,650 7.9 -11.2°
Reaches altitude 10° 03:00:39 10° 346° (NNW) 2,699 7.1 -10.9°
Maximum altitude 03:06:48 73° 263° (W) 1,003 4.4 -10.1°
Drops below altitude 10° 03:12:54 10° 180° (S) 2,674 6.5 -9.4°
Sets 03:15:23 0° 179° (S) 3,613 7.1 -9.1°
